Hilton Head Island, SC

12:29 AM EST on December 12, 2017 (GMT -0500)
Hilton Head

Weather History for KHXD - January, 2013

Change the Weather History Date:

Friday, January 25, 2013

  Actual Average Record
Temperature  
Mean Temperature 44 °F -  
Max Temperature 53 °F 61 °F 71 °F (2017)
Min Temperature 35 °F 41 °F 26 °F (2014)
Degree Days  
Heating Degree Days 21    
Moisture  
Dew Point 42 °F    
Average Humidity 92    
Maximum Humidity 100    
Minimum Humidity 70    
Precipitation  
Precipitation 0.00 in - - ()
Sea Level Pressure  
Sea Level Pressure 30.31 in    
Wind  
Wind Speed 10 mph (NNE)    
Max Wind Speed 16 mph    
Max Gust Speed 24 mph    
Visibility 10 miles    
Events      
Averages and records for this station are not official NWS values.
T = Trace of Precipitation, MM = Missing Value Source: NWS Daily Summary

Daily Weather History Graph

Daily Weather History Graph

Search for Another Location

Airport or City:

Trip Planner

Search our weather history database for the weather conditions in past years. The results will help you decide how hot, cold, wet, or windy it might be!

Date:

Astronomy

Jan. 25, 2013 Rise Set
Actual Time 7:20 AM EST 5:50 PM EST
Civil Twilight 6:54 AM EST 6:16 PM EST
Nautical Twilight 6:24 AM EST 6:45 PM EST
Astronomical Twilight 5:55 AM EST 7:14 PM EST
Moon 4:45 PM EST (1/25) 5:58 AM EST (1/25)
Length of Visible Light 11h 21m
Length of Day
10h 29m
Waxing Gibbous, 98% of the Moon is Illuminated
Jan 25
Waxing Gibbous
Jan 26
Full
Feb 3
Last Quarter
Feb 10
New
Feb 17
First Quarter

Hourly Weather History & Observations

Time (EST) Temp. Windchill Dew Point Humidity Pressure Visibility Wind Dir Wind Speed Gust Speed Precip Events Conditions
12:15 AM 42.8 °F 35.1 °F 42.8 °F 100% 30.43 in 10.0 mi NNE 16.1 mph 24.2 mph 0.00 in   Mostly Cloudy
12:35 AM 42.8 °F 35.8 °F 42.8 °F 100% 30.42 in 10.0 mi NNE 13.8 mph 21.9 mph 0.00 in   Overcast
12:55 AM 42.8 °F 35.8 °F 42.8 °F 100% 30.42 in 10.0 mi NNE 13.8 mph 20.7 mph 0.00 in   Overcast
1:15 AM 41.0 °F 33.5 °F 41.0 °F 100% 30.41 in 10.0 mi NNE 13.8 mph 20.7 mph 0.00 in   Overcast
1:55 AM 39.2 °F 31.6 °F 39.2 °F 100% 30.42 in 10.0 mi North 12.7 mph - 0.00 in   Mostly Cloudy
2:15 AM 39.2 °F 32.0 °F 39.2 °F 100% 30.42 in 10.0 mi NNE 11.5 mph 20.7 mph 0.00 in   Mostly Cloudy
2:35 AM 37.4 °F 29.8 °F 37.4 °F 100% 30.42 in 10.0 mi NNE 11.5 mph 19.6 mph 0.00 in   Mostly Cloudy
2:55 AM 37.4 °F 29.3 °F 37.4 °F 100% 30.43 in 10.0 mi NNE 12.7 mph 18.4 mph 0.00 in   Mostly Cloudy
3:15 AM 37.4 °F 29.3 °F 37.4 °F 100% 30.43 in 10.0 mi North 12.7 mph 18.4 mph 0.00 in   Partly Cloudy
3:35 AM 37.4 °F 29.8 °F 37.4 °F 100% 30.43 in 10.0 mi NNE 11.5 mph 18.4 mph 0.00 in   Clear
3:55 AM 35.6 °F 28.0 °F 35.6 °F 100% 30.43 in 10.0 mi North 10.4 mph 18.4 mph 0.00 in   Clear
4:15 AM 35.6 °F 26.6 °F 35.6 °F 100% 30.43 in 10.0 mi North 13.8 mph 17.3 mph 0.00 in   Clear
4:35 AM 35.6 °F 26.6 °F 35.6 °F 100% 30.44 in 10.0 mi North 13.8 mph 19.6 mph 0.00 in   Clear
4:55 AM 35.6 °F 27.1 °F 35.6 °F 100% 30.43 in 10.0 mi North 12.7 mph 19.6 mph 0.00 in   Clear
5:15 AM 35.6 °F 26.6 °F 35.6 °F 100% 30.41 in 10.0 mi NNE 13.8 mph - 0.00 in   Clear
5:35 AM 35.6 °F 27.5 °F 35.6 °F 100% 30.40 in 10.0 mi NNE 11.5 mph - 0.00 in   Clear
6:50 AM 35.6 °F 27.5 °F 28.4 °F 75% 30.40 in 10.0 mi NNE 11.5 mph 23.0 mph N/A   Mostly Cloudy
7:50 AM 35.6 °F 27.5 °F 28.4 °F 75% 30.38 in 10.0 mi NNE 11.5 mph 17.3 mph N/A   Partly Cloudy
8:50 AM 37.4 °F 30.8 °F 30.2 °F 75% 30.38 in 10.0 mi NNE 9.2 mph - N/A   Clear
9:50 AM 39.2 °F 32.5 °F 32.0 °F 75% 30.40 in 10.0 mi North 10.4 mph - N/A   Mostly Cloudy
10:50 AM 42.8 °F 37.5 °F 33.8 °F 70% 30.38 in 10.0 mi North 9.2 mph - N/A   Clear
11:50 AM 46.4 °F 43.5 °F 37.4 °F 71% 30.33 in 10.0 mi North 5.8 mph - N/A   Clear
12:50 PM 48.2 °F - 41.0 °F 76% 30.28 in 10.0 mi NNE 6.9 mph - N/A   Partly Cloudy
1:50 PM 51.8 °F - 44.6 °F 76% 30.24 in 10.0 mi NNE 4.6 mph - N/A   Mostly Cloudy
2:55 PM 51.8 °F - 44.6 °F 76% 30.22 in 10.0 mi North 6.9 mph - N/A   Mostly Cloudy
3:55 PM 53.6 °F - 44.6 °F 72% 30.21 in 10.0 mi Calm Calm - N/A   Clear
4:50 PM 53.6 °F - 46.4 °F 77% 30.20 in 10.0 mi Calm Calm - N/A   Clear
5:50 PM 51.8 °F - 46.4 °F 82% 30.19 in 10.0 mi Calm Calm - N/A   Mostly Cloudy
6:50 PM 51.8 °F - 46.4 °F 82% 30.20 in 10.0 mi Calm Calm - N/A   Clear
7:50 PM 50.0 °F - 48.2 °F 94% 30.20 in 10.0 mi Calm Calm - N/A   Scattered Clouds
8:15 PM 48.2 °F - 48.2 °F 100% 30.19 in 10.0 mi Calm Calm - 0.00 in   Scattered Clouds
8:35 PM 50.0 °F - 50.0 °F 100% 30.19 in 10.0 mi Calm Calm - 0.00 in   Mostly Cloudy
8:50 PM 50.0 °F - 46.4 °F 87% 30.19 in 10.0 mi Calm Calm - N/A   Mostly Cloudy
8:55 PM 50.0 °F - 50.0 °F 100% 30.19 in 10.0 mi Calm Calm - 0.00 in   Mostly Cloudy
9:15 PM 50.0 °F - 50.0 °F 100% 30.19 in 10.0 mi Calm Calm - 0.00 in   Mostly Cloudy
9:35 PM 50.0 °F - 50.0 °F 100% 30.19 in 10.0 mi Calm Calm - 0.00 in   Mostly Cloudy
9:55 PM 51.8 °F - 51.8 °F 100% 30.19 in 10.0 mi Calm Calm - 0.00 in   Overcast
10:15 PM 51.8 °F - 51.8 °F 100% 30.19 in 10.0 mi Calm Calm - 0.00 in   Overcast
10:35 PM 51.8 °F - 51.8 °F 100% 30.18 in 10.0 mi SSW 3.5 mph - 0.00 in   Overcast
10:55 PM 51.8 °F - 51.8 °F 100% 30.18 in 10.0 mi South 3.5 mph - 0.00 in   Overcast
11:15 PM 53.6 °F - 53.6 °F 100% 30.18 in 10.0 mi Calm Calm - 0.00 in   Mostly Cloudy
11:35 PM 51.8 °F - 51.8 °F 100% 30.17 in 10.0 mi Calm Calm - 0.00 in   Overcast
11:55 PM 51.8 °F - 51.8 °F 100% 30.17 in 10.0 mi SSW 3.5 mph - 0.00 in   Mostly Cloudy